TimeCDT,TemperatureF,Dew PointF,Humidity,Sea Level PressureIn,VisibilityMPH,Wind Direction,Wind SpeedMPH,Gust SpeedMPH,PrecipitationIn,Events,Conditions,WindDirDegrees,DateUTC
12:58 AM,77.0,74.3,91,30.07,10.0,NE,4.6,-,N/A,,Clear,50,2013-09-06 05:58:00
1:58 AM,77.2,74.1,90,30.06,10.0,East,1.2,-,N/A,,Clear,90,2013-09-06 06:58:00
2:58 AM,76.5,73.9,92,30.05,10.0,ENE,3.5,-,N/A,,Clear,60,2013-09-06 07:58:00
3:58 AM,75.9,73.8,93,30.06,10.0,NE,4.6,-,N/A,,Clear,50,2013-09-06 08:58:00
4:58 AM,75.2,73.4,94,30.06,10.0,NE,2.3,-,N/A,,Clear,40,2013-09-06 09:58:00
5:58 AM,75.0,73.0,94,30.07,10.0,NE,3.5,-,N/A,,Clear,50,2013-09-06 10:58:00
6:58 AM,75.4,73.6,94,30.09,10.0,NE,5.8,-,N/A,,Clear,40,2013-09-06 11:58:00
7:58 AM,77.9,74.3,89,30.10,9.0,NE,8.1,-,N/A,,Clear,40,2013-09-06 12:58:00
7:59 AM,78.8,73.4,83,30.09,8.0,NE,8.1,-,N/A,,Clear,40,2013-09-06 12:59:00
8:09 AM,78.8,73.4,83,30.09,10.0,NE,8.1,-,N/A,,Clear,40,2013-09-06 13:09:00
8:14 AM,78.8,73.4,83,30.09,10.0,NE,5.8,-,N/A,,Clear,40,2013-09-06 13:14:00
8:15 AM,78.8,73.4,83,30.09,10.0,NE,5.8,-,N/A,,Clear,40,2013-09-06 13:15:00
8:22 AM,78.8,73.4,83,30.09,10.0,NNE,6.9,-,N/A,,Clear,30,2013-09-06 13:22:00
8:58 AM,80.6,73.4,79,30.10,10.0,NE,6.9,-,N/A,,Clear,40,2013-09-06 13:58:00
9:58 AM,86.0,75.2,70,30.11,7.0,NE,6.9,-,N/A,,Clear,50,2013-09-06 14:58:00
10:58 AM,86.0,75.2,70,30.11,7.0,NE,6.9,-,N/A,,Clear,50,2013-09-06 15:58:00
11:58 AM,90.1,72.0,55,30.10,10.0,Variable,4.6,-,N/A,,Clear,0,2013-09-06 16:58:00
12:35 PM,89.6,73.4,59,30.08,10.0,South,6.9,-,N/A,,Scattered Clouds,170,2013-09-06 17:35:00
12:58 PM,89.6,75.2,62,30.08,10.0,SSW,6.9,-,N/A,,Scattered Clouds,200,2013-09-06 17:58:00
1:58 PM,89.6,73.4,59,30.07,10.0,South,6.9,-,N/A,,Clear,170,2013-09-06 18:58:00
2:55 PM,87.8,69.8,55,30.05,10.0,South,8.1,-,N/A,,Scattered Clouds,170,2013-09-06 19:55:00
3:57 PM,89.6,73.4,59,30.01,10.0,South,6.9,-,N/A,,Scattered Clouds,170,2013-09-06 20:57:00
4:59 PM,87.8,71.6,58,30.02,10.0,SSE,6.9,-,N/A,,Partly Cloudy,160,2013-09-06 21:59:00
5:55 PM,86.0,71.6,62,30.01,10.0,South,4.6,-,N/A,,Mostly Cloudy,180,2013-09-06 22:55:00
6:58 PM,83.3,72.9,71,30.01,10.0,South,4.6,-,N/A,,Scattered Clouds,190,2013-09-06 23:58:00
7:58 PM,83.3,73.0,71,30.02,10.0,SW,3.5,-,N/A,,Clear,220,2013-09-07 00:58:00
8:58 PM,82.9,73.2,72,30.03,10.0,Calm,Calm,-,N/A,,Clear,0,2013-09-07 01:58:00
9:58 PM,80.8,75.6,84,30.03,10.0,NNW,3.5,-,N/A,,Clear,340,2013-09-07 02:58:00
10:58 PM,80.1,74.8,84,30.04,10.0,NNW,2.3,-,N/A,,Clear,340,2013-09-07 03:58:00
11:58 PM,77.9,74.3,89,30.03,10.0,NNE,3.5,-,N/A,,Clear,30,2013-09-07 04:58:00